カタログに戻る

EXPLORER 31

ISIS-X

運用中科学UNKNOWN
NORAD 1806·PAYLOAD·🇺🇸 United States

打ち上げ Nov 29, 1965 から Vandenberg Space Force Base

Loading…

次のパス (今後24時間)

TLE

最新Source: Space-Track

元期: Sep 14, 2026, 00:39 UTC

1 01806U 65098B   26257.02739471  .00000950  00000-0  33236-3 0  9992
2 01806  79.7720 276.5432 1422549 320.5086  30.0226 12.08393595659423

AllMySatでEXPLORER 31をリアルタイム追跡

Download on the App Store